GW1213 Weather Reports


time (UTC)temp
C
wind
direction
speed
KPH
gust
KPH
rain 1hr
cm
rain 24hr
cm
rain mn
cm
humidity
%
barometer
mb
20260904002038 28 0 0.0 0.0 0.00 0.00 0.00 86 1013.8
20260904001556 28 0 0.0 0.0 0.00 0.00 0.00 86 1013.8
20260904001037 28 0 0.0 0.0 0.00 0.00 0.00 85 1013.8
20260904000535 28 0 0.0 0.0 0.00 0.00 0.00 85 1013.7
20260903235537 29 0 0.0 0.0 0.00 0.00 0.00 83 1013.5
20260903235041 30 0 0.0 0.0 0.00 0.00 0.00 81 1013.5
20260903234600 30 0 0.0 0.0 0.00 0.00 0.00 81 1013.3
20260903234038 30 0 0.0 0.0 0.00 0.00 0.00 81 1013.2
20260903233538 30 0 0.0 0.0 0.00 0.00 0.00 80 1013.2
20260903233101 31 0 0.0 0.0 0.00 0.00 0.00 78 1013.4
20260903232538 31 0 0.0 0.0 0.00 0.00 0.00 76 1013.3
20260903232040 31 0 0.0 3.2 0.00 0.00 0.00 75 1013.2
20260903231612 31 0 0.0 3.2 0.00 0.00 0.00 75 1013.3
20260903231037 31 0 0.0 6.4 0.00 0.00 0.00 74 1013.3
20260903230537 31 0 0.0 6.4 0.00 0.00 0.00 74 1013.2
20260903230112 31 0 0.0 3.2 0.00 0.00 0.00 74 1013.2
20260903225538 31 0 0.0 0.0 0.00 0.00 0.00 74 1013.1
20260903225038 31 0 0.0 0.0 0.00 0.00 0.00 74 1013.1
20260903224603 31 0 0.0 0.0 0.00 0.00 0.00 73 1013.0
20260903224042 31 0 0.0 3.2 0.00 0.00 0.00 73 1013.0
20260903223538 32 0 0.0 4.8 0.00 0.00 0.00 72 1013.0
20260903223114 32 0 0.0 4.8 0.00 0.00 0.00 71 1012.9
20260903222538 32 0 0.0 4.8 0.00 0.00 0.00 71 1012.8
20260903222038 32 0 0.0 6.4 0.00 0.00 0.00 71 1012.7
20260903221600 32 277 1.6 6.4 0.00 0.00 0.00 71 1012.8
20260903221038 32 0 0.0 6.4 0.00 0.00 0.00 71 1012.8
20260903220539 32 226 1.6 6.4 0.00 0.00 0.00 71 1012.9
20260903220107 32 237 0.0 4.8 0.00 0.00 0.00 70 1012.9
20260903215541 32 192 0.0 4.8 0.00 0.00 0.00 70 1012.9
20260903215039 32 0 0.0 9.7 0.00 0.00 0.00 70 1012.9
20260903214606 32 0 0.0 9.7 0.00 0.00 0.00 69 1013.0
20260903214036 32 281 1.6 9.7 0.00 0.00 0.00 69 1013.1
20260903213538 32 240 0.0 8.0 0.00 0.00 0.00 68 1013.3
20260903213102 32 284 0.0 8.0 0.00 0.00 0.00 69 1013.2
20260903212538 32 0 0.0 4.8 0.00 0.00 0.00 68 1013.1
20260903212038 32 0 0.0 8.0 0.00 0.00 0.00 67 1013.2
20260903211615 32 0 1.6 8.0 0.00 0.00 0.00 67 1013.3
20260903211037 32 272 3.2 11.3 0.00 0.00 0.00 66 1013.4
20260903210541 32 165 1.6 11.3 0.00 0.00 0.00 66 1013.5
20260903210058 32 177 1.6 11.3 0.00 0.00 0.00 66 1013.5
20260903205537 32 105 3.2 11.3 0.00 0.00 0.00 67 1013.5
20260903205036 32 260 3.2 11.3 0.00 0.00 0.00 66 1013.5
20260903204605 32 209 1.6 6.4 0.00 0.00 0.00 66 1013.6
20260903204038 32 127 3.2 8.0 0.00 0.00 0.00 65 1013.6
20260903203537 33 180 1.6 8.0 0.00 0.00 0.00 65 1013.6
20260903203105 32 0 3.2 9.7 0.00 0.00 0.00 64 1013.7
20260903202539 32 179 3.2 11.3 0.00 0.00 0.00 65 1013.8
20260903202037 33 208 4.8 11.3 0.00 0.00 0.00 65 1013.8
20260903201559 33 171 0.0 8.0 0.00 0.00 0.00 66 1013.9
20260903201041 32 150 3.2 8.0 0.00 0.00 0.00 66 1014.0
20260903200537 32 147 1.6 6.4 0.00 0.00 0.00 66 1014.1
20260903200108 32 271 0.0 6.4 0.00 0.00 0.00 67 1014.2
20260903195534 32 247 0.0 6.4 0.00 0.00 0.00 67 1014.3
20260903195041 32 0 0.0 6.4 0.00 0.00 0.00 67 1014.3
20260903194602 32 0 0.0 0.0 0.00 0.00 0.00 68 1014.3
20260903194037 32 0 0.0 3.2 0.00 0.00 0.00 69 1014.3
20260903193535 32 0 0.0 4.8 0.00 0.00 0.00 70 1014.5
20260903193103 32 0 0.0 4.8 0.00 0.00 0.00 68 1014.6
20260903192538 32 244 0.0 6.4 0.00 0.00 0.00 67 1014.7
20260903192034 31 0 1.6 6.4 0.00 0.00 0.00 70 1014.8
20260903191604 31 0 0.0 3.2 0.00 0.00 0.00 69 1015.0
20260903191037 31 0 0.0 8.0 0.00 0.00 0.00 70 1014.9
20260903190537 31 0 0.0 8.0 0.00 0.00 0.00 71 1014.8
20260903190058 31 0 0.0 4.8 0.00 0.00 0.00 72 1014.8
20260903185537 31 209 0.0 4.8 0.00 0.00 0.00 72 1014.8
20260903185037 31 176 0.0 4.8 0.00 0.00 0.00 72 1014.9
20260903184604 31 0 0.0 4.8 0.00 0.00 0.00 73 1015.1
20260903184037 31 263 0.0 4.8 0.00 0.00 0.00 74 1015.1
20260903183541 30 0 0.0 4.8 0.00 0.00 0.00 73 1015.1
20260903183120 30 0 0.0 0.0 0.00 0.00 0.00 73 1015.1
20260903182538 30 0 0.0 0.0 0.00 0.00 0.00 74 1015.2
20260903182035 30 0 0.0 0.0 0.00 0.00 0.00 74 1015.3
20260903181636 30 0 0.0 0.0 0.00 0.00 0.00 74 1015.3
20260903181040 30 0 0.0 0.0 0.00 0.00 0.00 73 1015.4
20260903180537 30 0 0.0 0.0 0.00 0.00 0.00 72 1015.5
20260903180059 30 0 0.0 1.6 0.00 0.00 0.00 72 1015.7
20260903175537 30 0 0.0 1.6 0.00 0.00 0.00 74 1015.6
20260903175041 30 0 0.0 1.6 0.00 0.00 0.00 73 1015.6
20260903174604 30 0 0.0 1.6 0.00 0.00 0.00 74 1015.6
20260903174037 30 0 0.0 3.2 0.00 0.00 0.00 73 1015.6
20260903173538 30 0 0.0 4.8 0.00 0.00 0.00 73 1015.8
20260903173110 30 348 1.6 4.8 0.00 0.00 0.00 74 1015.9
20260903172538 30 360 0.0 4.8 0.00 0.00 0.00 75 1016.0
20260903172034 30 0 0.0 4.8 0.00 0.00 0.00 76 1016.2
20260903171602 30 28 0.0 4.8 0.00 0.00 0.00 76 1016.2
20260903171034 29 352 0.0 4.8 0.00 0.00 0.00 77 1016.3
20260903170537 29 0 0.0 3.2 0.00 0.00 0.00 78 1016.4
20260903170059 28 0 0.0 4.8 0.00 0.00 0.00 80 1016.4
20260903165538 28 11 0.0 6.4 0.00 0.00 0.00 81 1016.5
20260903165040 27 71 1.6 6.4 0.00 0.00 0.00 82 1016.5
20260903164605 27 0 1.6 8.0 0.00 0.00 0.00 81 1016.4
20260903164039 27 68 4.8 8.0 0.00 0.00 0.00 81 1016.3
20260903163538 27 69 3.2 8.0 0.00 0.00 0.00 81 1016.3
20260903163102 27 77 0.0 3.2 0.00 0.00 0.00 81 1016.6
20260903162538 27 0 1.6 3.2 0.00 0.00 0.00 82 1016.6
20260903162035 27 0 0.0 4.8 0.00 0.00 0.00 82 1016.6
20260903161617 27 0 0.0 6.4 0.00 0.00 0.00 82 1016.8
20260903161041 27 0 1.6 6.4 0.00 0.00 0.00 82 1016.8
20260903160537 27 71 0.0 6.4 0.00 0.00 0.00 82 1017.0
20260903160058 27 196 1.6 6.4 0.00 0.00 0.00 84 1017.0
20260903155537 26 0 1.6 4.8 0.00 0.00 0.00 87 1017.1
20260903155037 26 0 1.6 4.8 0.00 0.00 0.00 87 1017.0
20260903154602 26 196 0.0 4.8 0.00 0.00 0.00 88 1017.1
20260903154038 26 0 0.0 0.0 0.00 0.00 0.00 88 1017.3
20260903153538 25 0 0.0 0.0 0.00 0.00 0.00 89 1017.4
20260903153102 25 0 0.0 0.0 0.00 0.00 0.00 89 1017.3
20260903152538 25 0 0.0 0.0 0.00 0.00 0.00 90 1017.4
20260903152038 25 0 0.0 0.0 0.00 0.00 0.00 91 1017.4
20260903151604 25 0 0.0 0.0 0.00 0.00 0.00 91 1017.3
20260903151037 25 0 0.0 0.0 0.00 0.00 0.00 91 1017.3
20260903150535 25 0 0.0 1.6 0.00 0.00 0.00 91 1017.1
20260903150108 25 0 0.0 4.8 0.00 0.00 0.00 91 1017.0
20260903145537 25 0 0.0 4.8 0.00 0.00 0.00 92 1016.9
20260903145038 24 0 1.6 4.8 0.00 0.00 0.00 92 1016.9
20260903144600 24 0 1.6 4.8 0.00 0.00 0.00 92 1016.8
20260903144037 24 74 1.6 6.4 0.00 0.00 0.00 93 1016.7
20260903143539 24 71 0.0 6.4 0.00 0.00 0.00 93 1016.7
20260903143101 24 0 0.0 6.4 0.00 0.00 0.00 93 1016.8
20260903142541 24 0 0.0 4.8 0.00 0.00 0.00 93 1017.0
20260903142038 24 0 0.0 4.8 0.00 0.00 0.00 94 1016.8
20260903141600 24 0 0.0 4.8 0.00 0.00 0.00 93 1016.8
20260903141041 24 0 0.0 4.8 0.00 0.00 0.00 93 1016.9
20260903140538 24 0 0.0 0.0 0.00 0.00 0.00 93 1017.0
20260903140109 24 0 0.0 0.0 0.00 0.00 0.00 94 1017.0
20260903135537 23 0 0.0 0.0 0.00 0.00 0.00 94 1017.0
20260903135037 23 0 0.0 0.0 0.00 0.00 0.00 94 1016.9
20260903134610 23 0 0.0 0.0 0.00 0.00 0.00 94 1016.8
20260903134038 23 0 0.0 0.0 0.00 0.00 0.00 94 1016.8
20260903133538 23 0 0.0 4.8 0.00 0.00 0.00 94 1016.8
20260903133102 23 0 0.0 4.8 0.00 0.00 0.00 94 1016.9
20260903132537 23 86 0.0 3.2 0.00 0.00 0.00 94 1017.1
20260903132037 23 0 0.0 4.8 0.00 0.00 0.00 94 1017.2
20260903131559 23 0 0.0 4.8 0.00 0.00 0.00 94 1017.2
20260903131038 23 0 0.0 4.8 0.00 0.00 0.00 95 1017.1
20260903130537 23 20 0.0 0.0 0.00 0.00 0.00 95 1017.3
20260903130104 23 0 0.0 0.0 0.00 0.00 0.00 95 1017.4
20260903125538 23 0 0.0 0.0 0.00 0.00 0.00 96 1017.5
20260903125038 23 0 0.0 1.6 0.00 0.00 0.00 96 1017.5
20260903124606 23 0 0.0 3.2 0.00 0.00 0.00 96 1017.5
20260903124037 23 331 0.0 6.4 0.00 0.00 0.00 96 1017.5
20260903123537 23 0 1.6 6.4 0.00 0.00 0.00 96 1017.5
20260903123058 23 338 3.2 6.4 0.00 0.00 0.00 96 1017.5
20260903122538 23 313 0.0 0.0 0.00 0.00 0.00 97 1017.4
20260903122039 23 0 0.0 0.0 0.00 0.00 0.00 97 1017.5
20260903121601 23 0 0.0 0.0 0.00 0.00 0.00 97 1017.1
20260903121040 23 0 0.0 0.0 0.00 0.00 0.00 97 1017.0
20260903120540 23 0 0.0 0.0 0.00 0.00 0.00 97 1017.0
20260903120106 23 0 0.0 0.0 0.00 0.00 0.00 97 1016.7
20260903115538 23 0 0.0 0.0 0.00 0.00 0.00 97 1016.7
20260903115035 23 0 0.0 0.0 0.00 0.00 0.00 97 1016.6
20260903114601 23 0 0.0 0.0 0.00 0.00 0.00 97 1016.6
20260903114037 23 0 0.0 0.0 0.00 0.00 0.00 97 1016.6
20260903113542 23 0 0.0 0.0 0.00 0.00 0.00 97 1016.5
20260903113059 22 0 0.0 0.0 0.00 0.00 0.00 97 1016.4
20260903112538 22 0 0.0 0.0 0.00 0.00 0.00 97 1016.4
20260903112038 22 0 0.0 0.0 0.00 0.00 0.00 97 1016.3
20260903111558 22 0 0.0 0.0 0.00 0.00 0.00 97 1016.3
20260903111038 22 0 0.0 0.0 0.00 0.00 0.00 96 1016.2
20260903110538 22 0 0.0 0.0 0.00 0.00 0.00 96 1016.0
20260903105538 22 0 0.0 0.0 0.00 0.00 0.00 96 1015.8
20260903105038 22 0 0.0 0.0 0.00 0.00 0.00 96 1015.8
20260903104602 22 0 0.0 0.0 0.00 0.00 0.00 96 1015.7
20260903104037 22 0 0.0 0.0 0.00 0.00 0.00 96 1015.7
20260903103536 22 0 0.0 0.0 0.00 0.00 0.00 96 1015.7
20260903103100 22 0 0.0 0.0 0.00 0.00 0.00 96 1015.7
20260903102534 22 0 0.0 0.0 0.00 0.00 0.00 96 1015.6
20260903102037 22 0 0.0 0.0 0.00 0.00 0.00 96 1015.6
20260903101557 22 0 0.0 0.0 0.00 0.00 0.00 96 1015.6
20260903101037 22 0 0.0 0.0 0.00 0.00 0.00 96 1015.6
20260903100537 22 0 0.0 0.0 0.00 0.00 0.00 96 1015.6
20260903095535 22 0 0.0 0.0 0.00 0.00 0.00 96 1015.7
20260903095037 22 0 0.0 0.0 0.00 0.00 0.00 96 1015.7
20260903094610 22 0 0.0 0.0 0.00 0.00 0.00 96 1015.8
20260903094038 22 0 0.0 0.0 0.00 0.00 0.00 96 1015.9
20260903093541 22 0 0.0 0.0 0.00 0.00 0.00 96 1015.9
20260903093103 22 0 0.0 0.0 0.00 0.00 0.00 96 1015.9
20260903092537 22 0 0.0 0.0 0.00 0.00 0.00 96 1015.9
20260903092035 22 0 0.0 0.0 0.00 0.00 0.00 96 1015.7
20260903091603 22 0 0.0 0.0 0.00 0.00 0.00 96 1015.8
20260903091041 22 0 0.0 0.0 0.00 0.00 0.00 96 1015.8
20260903090535 22 0 0.0 0.0 0.00 0.00 0.00 95 1015.8
20260903085539 22 0 0.0 0.0 0.00 0.00 0.00 96 1015.8
20260903085037 22 0 0.0 0.0 0.00 0.00 0.00 96 1015.7
20260903084600 22 0 0.0 0.0 0.00 0.00 0.00 96 1015.7
20260903084038 22 0 0.0 0.0 0.00 0.00 0.00 96 1015.6
20260903083539 22 0 0.0 0.0 0.00 0.00 0.00 96 1015.5
20260903083106 22 0 0.0 0.0 0.00 0.00 0.00 95 1015.6
20260903082541 22 0 0.0 0.0 0.00 0.00 0.00 95 1015.5
20260903082040 22 0 0.0 0.0 0.00 0.00 0.00 95 1015.6
20260903081601 22 0 0.0 0.0 0.00 0.00 0.00 95 1015.6
20260903081041 22 0 0.0 0.0 0.00 0.00 0.00 95 1015.7
20260903080537 22 0 0.0 0.0 0.00 0.00 0.00 95 1015.5
20260903075538 22 0 0.0 0.0 0.00 0.00 0.00 95 1015.6
20260903075041 22 0 0.0 0.0 0.00 0.00 0.00 95 1015.6
20260903074558 22 0 0.0 0.0 0.00 0.00 0.00 95 1015.6
20260903074036 22 0 0.0 0.0 0.00 0.00 0.00 95 1015.6
20260903073536 22 0 0.0 0.0 0.00 0.00 0.00 95 1015.4
20260903073110 22 0 0.0 0.0 0.00 0.00 0.00 95 1015.4
20260903072538 22 0 0.0 0.0 0.00 0.00 0.00 95 1015.3
20260903072038 22 0 0.0 0.0 0.00 0.00 0.00 95 1015.3
20260903071601 22 0 0.0 0.0 0.00 0.00 0.00 95 1015.4
20260903071035 22 0 0.0 0.0 0.00 0.00 0.00 95 1015.3
20260903070540 22 0 0.0 0.0 0.00 0.00 0.00 95 1015.3
20260903070108 22 0 0.0 0.0 0.00 0.00 0.00 95 1015.4
20260903065535 22 0 0.0 0.0 0.00 0.00 0.00 95 1015.5
20260903065038 22 0 0.0 0.0 0.00 0.00 0.00 95 1015.6
20260903064557 22 0 0.0 0.0 0.00 0.00 0.00 95 1015.6
20260903064035 22 0 0.0 0.0 0.00 0.00 0.00 95 1015.7
20260903063539 22 0 0.0 0.0 0.00 0.00 0.00 94 1015.8
20260903063125 22 0 0.0 0.0 0.00 0.00 0.00 94 1015.7
20260903062538 22 0 0.0 0.0 0.00 0.00 0.00 94 1015.9
20260903062036 22 0 0.0 0.0 0.00 0.00 0.00 94 1016.0
20260903061559 22 0 0.0 0.0 0.00 0.00 0.00 94 1016.1
20260903061035 22 0 0.0 0.0 0.00 0.00 0.00 94 1016.1
20260903060534 22 0 0.0 0.0 0.00 0.00 0.00 94 1016.1
20260903060104 22 0 0.0 0.0 0.00 0.00 0.00 94 1016.2
20260903055536 22 0 0.0 0.0 0.00 0.00 0.00 94 1016.3
20260903055035 22 0 0.0 0.0 0.00 0.00 0.00 94 1016.3
20260903054558 22 0 0.0 0.0 0.00 0.00 0.00 94 1016.5
20260903054037 22 0 0.0 0.0 0.00 0.00 0.00 94 1016.5
20260903053536 22 0 0.0 0.0 0.00 0.00 0.00 94 1016.5
20260903053059 22 0 0.0 0.0 0.00 0.00 0.00 94 1016.6
20260903052536 22 0 0.0 0.0 0.00 0.00 0.00 94 1016.4
20260903052035 22 0 0.0 0.0 0.00 0.00 0.00 94 1016.4
20260903051604 22 0 0.0 0.0 0.00 0.00 0.00 94 1016.5
20260903051038 23 0 0.0 0.0 0.00 0.00 0.00 94 1016.6
20260903050542 23 0 0.0 0.0 0.00 0.00 0.00 94 1016.6
20260903050104 23 0 0.0 0.0 0.00 0.00 0.00 94 1016.7
20260903045536 23 0 0.0 0.0 0.00 0.00 0.00 94 1016.6
20260903045038 23 0 0.0 0.0 0.00 0.00 0.00 94 1016.7
20260903044558 23 0 0.0 0.0 0.00 0.00 0.00 93 1016.7
20260903044039 23 0 0.0 0.0 0.00 0.00 0.00 93 1016.7
20260903043538 23 0 0.0 0.0 0.00 0.00 0.00 93 1016.7
20260903043108 23 0 0.0 0.0 0.00 0.00 0.00 93 1016.7
20260903042534 23 0 0.0 0.0 0.00 0.00 0.00 93 1016.8
20260903042035 23 0 0.0 0.0 0.00 0.00 0.00 93 1016.8
20260903041606 23 0 0.0 0.0 0.00 0.00 0.00 93 1016.6
20260903041034 23 0 0.0 0.0 0.00 0.00 0.00 93 1016.6
20260903040540 23 0 0.0 0.0 0.00 0.00 0.00 93 1016.7
20260903040105 23 0 0.0 0.0 0.00 0.00 0.00 93 1016.6
20260903035535 23 0 0.0 0.0 0.00 0.00 0.00 93 1016.7
20260903035035 23 0 0.0 0.0 0.00 0.00 0.00 93 1016.7
20260903034558 23 0 0.0 0.0 0.00 0.00 0.00 93 1016.7
20260903034036 23 0 0.0 0.0 0.00 0.00 0.00 93 1016.6
20260903033535 23 0 0.0 0.0 0.00 0.00 0.00 94 1016.5
20260903033058 23 0 0.0 0.0 0.00 0.00 0.00 94 1016.4
20260903032535 23 0 0.0 0.0 0.00 0.00 0.00 93 1016.4
20260903032037 23 0 0.0 0.0 0.00 0.00 0.00 93 1016.2
20260903031600 23 0 0.0 0.0 0.00 0.00 0.00 93 1016.1
20260903031038 23 0 0.0 0.0 0.00 0.00 0.00 93 1016.1
20260903030540 23 0 0.0 0.0 0.00 0.00 0.00 93 1016.1
20260903030110 23 0 0.0 0.0 0.00 0.00 0.00 93 1016.1
20260903025535 23 0 0.0 0.0 0.00 0.00 0.00 93 1016.0
20260903025035 23 0 0.0 0.0 0.00 0.00 0.00 93 1016.0
20260903024558 23 0 0.0 0.0 0.00 0.00 0.00 92 1015.9
20260903024037 23 0 0.0 0.0 0.00 0.00 0.00 92 1016.0
20260903023535 23 0 0.0 0.0 0.00 0.00 0.00 91 1015.9
20260903023101 23 0 0.0 0.0 0.00 0.00 0.00 92 1015.9
20260903022536 23 0 0.0 0.0 0.00 0.00 0.00 91 1015.9
20260903022038 23 0 0.0 0.0 0.00 0.00 0.00 91 1015.8
20260903021604 23 0 0.0 0.0 0.00 0.00 0.00 91 1015.9
20260903021038 23 0 0.0 0.0 0.00 0.00 0.00 91 1016.0
20260903020537 23 0 0.0 0.0 0.00 0.00 0.00 91 1016.2
20260903020059 23 0 0.0 0.0 0.00 0.00 0.00 90 1016.3
20260903015538 23 0 0.0 0.0 0.00 0.00 0.00 90 1016.4
20260903015036 23 0 0.0 0.0 0.00 0.00 0.00 91 1016.4
20260903014601 23 0 0.0 0.0 0.00 0.00 0.00 91 1016.5
20260903014045 23 0 0.0 0.0 0.00 0.00 0.00 90 1016.6
20260903013538 23 0 0.0 0.0 0.00 0.00 0.00 90 1016.5
20260903013057 23 0 0.0 0.0 0.00 0.00 0.00 90 1016.5
20260903012541 23 0 0.0 0.0 0.00 0.00 0.00 90 1016.4
20260903012035 23 0 0.0 0.0 0.00 0.00 0.00 90 1016.3
20260903011606 24 0 0.0 0.0 0.00 0.00 0.00 89 1016.4
20260903011038 24 0 0.0 0.0 0.00 0.00 0.00 89 1016.4
20260903010542 24 0 0.0 0.0 0.00 0.00 0.00 89 1016.7
20260903010058 24 0 0.0 0.0 0.00 0.00 0.00 88 1016.7
20260903005539 24 0 0.0 0.0 0.00 0.00 0.00 88 1016.7
20260903005036 24 0 0.0 0.0 0.00 0.00 0.00 88 1016.8
20260903004609 24 0 0.0 0.0 0.00 0.00 0.00 88 1016.6
20260903004038 24 0 0.0 0.0 0.00 0.00 0.00 88 1016.6
20260903003537 24 0 0.0 0.0 0.00 0.00 0.00 88 1016.7
20260903003059 24 0 0.0 0.0 0.00 0.00 0.00 87 1016.4
20260903002535 24 0 0.0 0.0 0.00 0.00 0.00 87 1016.3